Date,TemperatureHighF,TemperatureAvgF,TemperatureLowF,DewpointHighF,DewpointAvgF,DewpointLowF,HumidityHigh,HumidityAvg,HumidityLow,PressureMaxIn,PressureMinIn,WindSpeedMaxMPH,WindSpeedAvgMPH,GustSpeedMaxMPH,PrecipitationSumIn
2013-1-1,80,66,57,65,53,46,100,66,40,30.18,30.00,11,1,11,0.00
2013-1-2,78,71,62,72,63,54,100,77,59,30.03,29.97,6,1,6,0.00
2013-1-3,74,68,63,71,66,60,100,95,67,30.09,29.97,10,2,10,0.08
2013-1-4,64,62,59,64,62,59,100,100,99,30.24,30.09,8,2,8,0.04
2013-1-5,74,63,56,61,55,48,100,77,41,30.27,30.15,9,2,9,0.00
2013-1-6,80,68,62,71,62,56,100,82,47,30.18,30.03,10,2,10,0.00
2013-1-7,67,64,60,67,59,45,100,85,45,30.18,30.06,12,3,12,0.12
2013-1-8,84,73,64,70,60,52,100,71,38,30.18,30.06,9,2,9,0.00
2013-1-9,87,77,70,74,62,53,100,64,38,30.24,30.09,10,1,10,0.00
2013-1-10,87,76,70,73,61,50,100,65,38,30.24,30.15,10,2,10,0.00
2013-1-11,74,71,67,68,62,57,95,73,57,30.21,30.09,6,1,6,0.00
2013-1-12,78,72,69,65,61,57,85,68,50,30.12,30.03,5,0,5,0.00
2013-1-13,83,73,67,66,59,52,89,64,39,30.12,30.00,7,1,7,0.00
2013-1-14,77,72,66,69,62,56,100,72,53,30.15,30.06,6,2,6,0.00
2013-1-15,86,72,63,63,58,49,100,67,38,30.15,30.00,8,1,8,0.00
2013-1-16,82,71,65,72,58,49,100,68,39,30.06,29.94,6,1,6,0.00
2013-1-17,73,67,53,73,65,38,100,91,52,30.12,29.94,18,4,18,0.31
2013-1-18,62,54,43,48,39,31,66,58,44,30.30,30.12,14,4,14,0.04
2013-1-19,76,64,53,54,48,42,72,56,40,30.24,30.09,14,4,14,0.04
2013-1-20,73,65,61,58,54,47,89,68,46,30.15,30.00,10,3,10,0.04
2013-1-21,75,65,60,57,51,46,81,62,41,30.06,30.00,11,1,11,0.04
2013-1-22,66,59,51,48,37,30,64,45,40,30.24,30.03,10,3,10,0.04
2013-1-23,71,56,46,44,37,27,74,49,39,30.36,30.24,8,2,8,0.04
2013-1-24,76,58,48,53,46,41,93,66,38,30.30,30.21,11,1,11,0.00
2013-1-25,81,62,53,62,49,40,100,68,37,30.30,30.15,7,1,7,0.00
2013-1-26,81,64,55,65,53,46,100,72,39,30.24,30.15,11,1,11,0.00
2013-1-27,81,65,56,65,54,47,100,70,37,30.27,30.18,9,1,9,0.00
2013-1-28,72,68,61,69,63,54,100,83,72,30.30,30.24,6,2,6,0.00
2013-1-29,68,67,65,68,66,61,100,95,80,30.18,30.15,6,0,6,0.00
2013-1-30,86,76,69,63,58,51,81,55,38,29.97,29.85,13,5,13,0.00
2013-1-31,70,58,50,62,42,30,100,58,40,30.21,29.91,20,3,20,0.12
2013-2-1,70,55,47,44,35,26,67,46,39,30.33,30.18,11,3,11,0.00
2013-2-2,78,57,45,50,37,28,67,48,38,30.27,30.12,10,2,10,0.00
2013-2-3,76,57,46,50,44,39,87,63,40,30.18,30.06,13,1,13,0.00
2013-2-4,75,57,48,52,42,34,91,62,38,30.09,30.00,8,1,8,0.00
2013-2-5,67,55,47,52,42,35,80,62,42,30.03,29.97,5,1,5,0.00
2013-2-6,77,67,59,56,51,45,79,58,40,30.06,29.97,8,1,8,0.00
2013-2-7,72,67,63,64,62,54,93,83,70,30.00,29.83,11,1,11,0.00
2013-2-8,80,68,60,69,58,49,99,74,40,30.03,29.85,13,2,13,0.00
2013-2-9,78,65,57,60,51,44,100,64,38,30.15,30.03,11,2,11,0.00
2013-2-10,85,70,61,56,52,48,73,55,38,30.21,30.09,12,3,12,0.00
2013-2-11,84,72,66,64,58,52,80,63,39,30.15,30.03,10,2,10,0.00
2013-2-12,86,73,68,73,65,56,99,79,38,30.03,29.88,8,2,8,0.00
2013-2-13,84,73,61,75,69,61,100,88,54,29.94,29.80,14,2,14,1.26
2013-2-14,67,64,62,67,64,58,100,98,79,30.00,29.88,10,0,10,0.28
2013-2-15,68,61,56,63,55,43,100,84,45,30.06,29.91,9,1,9,0.00
2013-2-16,61,56,52,54,43,30,86,66,42,30.12,29.91,22,3,22,0.00
2013-2-17,57,47,40,33,27,22,74,47,42,30.33,30.12,20,3,20,0.00
2013-2-18,72,52,37,45,35,22,76,53,39,30.33,30.15,10,2,10,0.00
2013-2-19,81,65,52,58,50,45,87,62,37,30.18,30.03,10,1,10,0.00
2013-2-20,76,66,58,66,56,47,100,73,43,30.09,29.97,10,2,10,0.00
2013-2-21,84,69,58,61,55,50,91,65,39,30.06,29.94,8,1,8,0.00
2013-2-22,86,74,66,70,62,54,100,70,38,30.03,29.94,9,1,9,0.00
2013-2-23,82,75,69,73,68,63,100,81,55,29.94,29.85,11,2,11,0.00
2013-2-24,78,74,71,76,71,67,100,92,75,29.91,29.83,8,1,8,0.00
2013-2-25,82,75,71,73,67,53,100,78,39,29.85,29.71,7,1,7,0.00
2013-2-26,77,73,68,75,67,58,100,82,64,29.83,29.65,13,2,13,0.24
2013-2-27,74,65,60,60,50,42,78,61,41,29.94,29.83,13,3,13,0.00
2013-2-28,61,58,58,50,49,47,76,72,60,29.94,29.88,11,1,11,0.00
2013-3-1,58,58,58,50,50,50,76,76,76,29.91,29.91,0,0,0,0.00
2013-3-2,56,52,51,33,30,30,44,44,42,30.03,29.94,17,4,17,0.00
2013-3-3,56,47,0,33,26,-21,44,43,35,30.12,29.97,17,4,17,0.00
2013-3-4,69,53,45,44,32,25,73,46,40,30.21,30.09,9,2,9,0.00
2013-3-5,78,60,44,55,45,37,87,60,38,30.15,30.00,10,2,10,0.00
2013-3-6,68,39,0,66,25,-21,96,59,35,30.12,29.91,22,5,22,0.00
2013-3-7,83,56,47,66,47,39,84,72,56,30.21,30.09,10,2,11,0.00
2013-3-8,87,59,48,69,52,45,96,79,56,30.21,30.09,11,2,11,0.00
2013-3-9,73,63,51,62,54,48,94,74,59,30.18,30.12,10,2,10,0.00
2013-3-10,75,71,66,64,58,57,80,65,59,30.15,30.00,8,2,8,0.00
2013-3-11,83,69,61,69,62,58,100,80,62,30.06,29.83,11,2,11,0.00
2013-3-12,73,66,60,72,64,56,100,93,81,30.00,29.80,15,3,15,0.28
2013-3-13,84,63,57,69,54,50,88,72,58,30.15,30.00,15,4,15,0.00
2013-3-14,59,56,55,55,46,43,87,69,64,30.18,30.15,8,2,8,0.00
2013-3-15,55,55,55,43,43,43,65,65,65,30.18,30.18,2,2,3,0.00
2013-3-16,69,59,55,61,51,43,100,75,65,30.18,30.03,8,2,8,0.00
2013-3-17,72,63,54,65,60,54,100,91,73,30.09,29.94,8,1,8,0.00
2013-3-18,73,67,61,72,67,61,100,99,92,30.00,29.80,10,1,10,0.00
2013-3-19,99,71,63,83,68,63,100,91,60,29.97,29.85,9,1,9,0.00
2013-3-20,72,66,60,71,66,60,100,100,96,29.94,29.77,13,1,13,0.24
2013-3-21,100,62,53,79,55,48,100,82,52,29.94,29.85,12,2,12,0.00
2013-3-22,85,62,51,69,56,47,100,82,60,29.97,29.85,9,1,9,1.22
2013-3-23,84,72,66,79,71,66,100,97,79,29.91,29.74,13,1,13,0.04
2013-3-24,78,73,70,78,73,70,100,100,98,29.77,29.59,17,3,17,0.00
2013-3-25,76,64,58,70,56,49,100,77,63,30.00,29.71,21,4,21,0.00
2013-3-26,67,56,52,53,46,43,73,68,61,30.18,30.00,21,4,21,0.00
2013-3-27,68,52,43,54,43,36,86,72,62,30.30,30.15,13,3,13,0.00
2013-3-28,75,56,46,59,48,42,100,76,58,30.27,30.18,13,2,13,0.00
2013-3-29,78,60,50,61,52,47,94,77,56,30.30,30.18,10,2,10,0.00
2013-3-30,78,63,52,63,56,49,99,81,58,30.24,30.09,11,1,11,0.00
2013-3-31,80,67,58,64,61,58,100,83,57,30.12,29.97,14,1,14,0.00
2013-4-1,80,72,67,74,69,63,100,91,76,30.00,29.91,11,2,11,0.00
2013-4-2,79,70,64,72,67,64,100,90,73,30.06,29.94,9,1,9,0.00
2013-4-3,83,72,65,73,69,65,100,90,68,30.03,29.88,10,1,10,0.16
2013-4-4,71,70,67,71,70,67,100,100,100,30.00,29.83,6,1,6,0.39
2013-4-5,93,69,65,81,66,60,100,92,65,29.97,29.77,16,2,16,0.08
2013-4-6,95,64,57,80,58,54,91,84,60,30.06,29.97,10,3,10,0.00
2013-4-7,81,81,81,68,68,68,64,64,64,30.03,30.03,3,3,5,0.00
2013-4-8,98,76,67,78,67,63,90,74,55,30.09,30.00,10,2,10,0.00
2013-4-9,84,74,68,71,68,66,98,83,66,30.12,30.00,8,1,8,0.00
2013-4-10,98,76,68,82,68,64,93,78,57,30.06,29.91,10,2,10,0.00
2013-4-11,88,78,72,73,66,54,100,68,34,29.91,29.74,10,2,10,0.04
2013-4-12,78,76,73,77,74,71,100,95,81,29.85,29.71,12,2,12,0.00
2013-4-13,89,75,70,78,70,65,100,84,62,29.94,29.83,8,1,8,0.00
2013-4-14,85,74,65,77,68,62,100,83,64,29.97,29.80,14,3,14,0.08
2013-4-15,90,75,66,72,68,65,100,80,57,30.03,29.85,10,1,10,0.00
2013-4-16,86,74,68,71,68,63,100,84,53,30.09,29.97,10,1,10,0.00
2013-4-17,90,76,67,68,62,53,100,65,34,30.09,29.94,10,3,10,0.00
2013-4-18,86,78,69,71,68,63,99,73,54,30.00,29.88,9,2,9,0.00
2013-4-19,87,79,72,76,72,67,100,80,54,29.94,29.88,13,3,13,0.00
2013-4-20,76,67,60,74,64,59,100,92,76,30.12,29.91,11,3,11,0.16
2013-4-21,79,69,60,69,64,59,100,85,68,30.09,30.00,10,4,10,0.00
2013-4-22,79,74,66,70,66,62,91,74,66,30.03,29.94,13,4,13,0.00
2013-4-23,81,72,64,65,62,55,100,74,52,30.06,29.97,11,4,11,0.00
2013-4-24,83,71,61,65,61,56,100,72,46,30.09,30.03,10,2,10,0.00
2013-4-25,81,72,64,72,65,60,100,79,56,30.18,30.06,12,2,12,0.00
2013-4-26,83,74,66,71,66,63,100,76,52,30.21,30.09,10,2,10,0.00
2013-4-27,83,74,67,71,64,61,100,73,50,30.18,30.03,10,2,10,0.00
2013-4-28,90,75,66,72,63,60,100,68,43,30.06,29.91,9,2,9,0.08
2013-4-29,81,74,67,72,66,61,100,78,58,29.97,29.85,9,1,9,0.04
2013-4-30,84,74,66,76,66,54,100,82,41,29.94,29.85,11,2,11,2.40
2013-5-1,73,70,66,70,66,64,93,90,84,29.94,29.85,8,3,8,0.91
2013-5-2,76,70,64,74,66,62,92,88,66,29.91,29.77,10,2,10,0.00
2013-5-3,82,72,68,73,62,52,93,72,42,29.77,29.68,14,2,14,0.08
2013-5-4,82,72,68,63,57,52,78,60,38,29.77,29.62,14,2,14,0.00
2013-5-5,76,68,63,61,43,34,82,42,25,29.88,29.74,17,4,17,0.00
2013-5-6,74,68,65,53,43,38,57,40,30,29.97,29.85,14,3,14,0.00
2013-5-7,78,69,64,49,44,41,49,40,31,30.00,29.91,13,2,13,0.00
2013-5-8,82,70,62,56,48,44,71,49,31,30.09,29.97,10,2,10,0.00
2013-5-9,84,71,63,64,53,46,85,56,31,30.12,30.03,11,1,11,0.00
2013-5-10,89,74,64,68,56,45,89,57,25,30.09,29.94,10,1,10,0.00
2013-5-11,87,76,70,70,61,53,86,62,34,30.00,29.94,22,2,22,0.00
2013-5-12,83,76,70,70,58,50,87,58,34,30.00,29.88,11,1,11,0.00
2013-5-13,82,73,66,64,58,42,77,60,36,30.09,29.97,17,2,17,0.00
2013-5-14,81,70,59,61,54,46,76,58,48,30.18,30.06,15,2,15,0.00
2013-5-15,83,72,61,65,61,58,100,70,50,30.18,30.03,10,1,10,0.00
2013-5-16,72,70,68,65,63,61,86,78,74,30.06,30.00,5,0,5,0.00
2013-5-17,72,72,72,63,63,63,74,74,74,30.06,30.06,0,0,3,0.00
2013-5-18,84,77,72,75,68,63,93,74,63,30.06,29.97,10,2,10,0.00
2013-5-19,85,77,69,76,70,66,100,81,59,30.03,29.94,10,1,10,0.00
2013-5-20,88,78,71,74,69,63,100,74,53,30.03,29.91,12,2,12,0.00
2013-5-21,85,74,68,73,69,64,100,86,55,29.97,29.85,14,2,14,0.08
2013-5-22,84,76,69,76,69,66,100,83,59,29.91,29.83,13,1,13,0.00
2013-5-23,73,72,70,73,72,68,100,98,84,29.91,29.85,3,0,3,0.00
2013-5-24,73,73,73,73,73,73,100,100,100,29.91,29.91,0,0,0,0.00
2013-5-25,75,73,73,73,72,58,100,98,57,30.12,29.91,8,0,8,0.00
2013-5-26,86,76,66,62,59,55,87,57,43,30.15,30.06,9,3,9,0.00
2013-5-27,87,76,65,66,62,59,97,63,44,30.12,30.00,10,2,10,0.00
2013-5-28,88,77,68,76,69,63,100,78,53,30.09,29.94,11,3,11,0.12
2013-5-29,84,77,72,77,70,63,100,81,55,30.03,29.97,14,3,14,0.20
2013-5-30,86,79,72,75,69,64,100,75,55,30.03,29.94,15,4,15,0.00
2013-5-31,87,79,71,70,63,59,98,60,40,30.03,29.94,11,3,11,0.00
2013-6-1,83,78,72,72,66,61,94,70,52,30.00,29.91,10,2,10,0.00
2013-6-2,83,80,76,82,75,63,100,86,52,29.94,29.83,8,2,8,0.00
2013-6-3,85,78,73,78,70,62,100,78,51,29.94,29.83,10,1,10,0.00
2013-6-4,84,78,75,77,70,62,98,79,49,29.94,29.88,9,1,9,0.08
2013-6-5,83,77,73,74,69,60,98,77,51,29.94,29.83,8,1,8,0.04
2013-6-6,77,74,72,77,74,72,100,100,98,29.83,29.56,17,4,17,2.83
2013-6-7,84,78,73,78,69,62,100,76,50,29.91,29.71,10,2,10,0.00
2013-6-8,86,78,72,76,69,62,100,76,49,30.03,29.91,11,2,11,0.20
2013-6-9,86,78,72,81,74,68,100,90,57,30.03,29.94,11,1,11,0.08
2013-6-10,87,80,74,77,70,62,100,74,47,30.03,29.94,11,2,11,0.00
2013-6-11,85,78,73,81,75,68,100,91,64,30.03,29.97,9,1,9,0.71
2013-6-12,87,81,74,79,69,62,100,70,45,30.03,29.94,13,2,13,0.71
2013-6-13,87,82,76,73,65,60,88,56,41,30.00,29.85,9,2,9,0.00
2013-6-14,80,79,78,67,66,64,67,64,62,29.91,29.83,7,2,7,0.00
2013-6-15,87,83,78,72,68,64,74,60,51,30.00,29.85,10,2,10,0.00
2013-6-16,88,82,77,76,70,60,95,68,41,30.03,29.94,9,2,9,0.00
2013-6-17,90,83,76,78,68,62,96,65,40,30.00,29.94,10,2,10,0.00
2013-6-18,89,82,76,78,69,64,96,66,44,30.00,29.91,10,2,10,0.00
2013-6-19,88,81,72,83,74,64,100,81,47,29.97,29.91,8,1,8,0.20
2013-6-20,88,81,76,80,67,58,99,66,39,30.06,29.94,10,1,10,0.00
2013-6-21,84,77,72,79,70,62,100,82,51,30.06,29.97,6,0,6,0.31
2013-6-22,87,79,72,79,68,59,100,73,40,30.06,29.97,13,1,13,0.00
2013-6-23,89,78,74,76,69,55,100,77,36,30.09,30.00,0,0,0,0.39
2013-6-24,89,80,73,80,70,61,100,76,40,30.12,30.00,0,0,0,0.00
2013-6-25,89,81,75,77,68,60,99,68,40,30.12,29.97,0,0,0,0.00
2013-6-26,88,80,75,79,70,60,100,76,46,30.03,29.94,0,0,0,0.00
2013-6-27,89,81,73,78,68,62,99,68,43,30.00,29.88,0,0,0,0.00
2013-6-28,88,82,76,74,68,62,87,63,44,29.91,29.80,0,0,0,0.00
2013-6-29,85,79,73,79,72,61,100,81,49,29.83,29.74,0,0,0,0.35
2013-6-30,85,77,74,80,76,69,100,97,61,29.83,29.74,0,0,0,1.50
2013-7-1,77,74,72,77,74,72,100,100,100,29.94,29.77,0,0,0,1.06
2013-7-2,82,76,72,82,76,72,100,100,97,30.03,29.88,0,0,0,1.50
2013-7-3,84,76,73,77,74,62,100,93,51,30.06,29.97,0,0,0,0.24
2013-7-4,84,75,71,80,73,64,100,96,51,30.09,30.00,0,0,0,0.39
2013-7-5,80,75,71,80,75,71,100,100,100,30.09,30.03,0,0,0,0.00
2013-7-6,80,80,80,80,80,80,100,100,100,30.06,30.06,0,0,0,0.00
2013-7-7,80,78,76,80,78,76,100,100,100,30.06,29.97,0,0,0,0.00
2013-7-8,87,78,73,84,77,70,100,96,61,30.09,30.00,0,0,0,1.14
2013-7-9,87,78,72,82,72,59,100,86,41,30.09,29.97,0,0,0,0.47
2013-7-10,73,73,73,73,73,73,100,100,100,30.03,30.00,0,0,0,0.00
2013-7-11,86,79,73,80,72,65,100,81,51,29.97,29.85,0,0,0,0.00
2013-7-12,82,77,74,82,77,72,100,99,83,29.88,29.83,0,0,0,0.35
2013-7-13,83,75,73,80,75,66,100,98,62,29.91,29.83,0,0,0,0.51
2013-7-14,83,77,72,82,74,68,100,91,73,30.00,29.88,0,0,0,0.00
2013-7-15,82,76,72,76,72,64,100,88,58,30.03,29.97,0,0,0,0.04
2013-7-16,87,80,73,74,66,56,100,68,34,30.09,30.00,0,0,0,0.12
2013-7-17,88,77,73,77,69,50,100,79,36,30.09,30.00,0,0,0,0.04
2013-7-18,87,78,73,73,66,53,98,72,32,30.03,29.97,0,0,0,0.04
2013-7-19,84,77,73,74,69,61,100,77,46,30.06,29.97,0,0,0,0.12
2013-7-20,87,78,73,79,71,58,100,82,41,30.03,29.94,0,0,0,0.04
2013-7-21,88,81,74,79,70,61,100,73,41,30.06,29.97,0,0,0,0.04
2013-7-22,88,82,76,80,69,61,100,69,41,30.06,29.97,0,0,0,0.04
2013-7-23,86,81,76,69,64,58,76,56,42,30.03,29.88,0,0,0,0.04
2013-7-24,86,82,77,82,69,64,100,68,50,29.94,29.83,0,0,0,0.31
2013-7-25,87,82,75,79,67,60,100,63,41,29.91,29.80,10,1,10,0.43
2013-7-26,86,80,74,83,71,54,98,79,34,29.94,29.88,17,1,17,0.04
2013-7-27,90,82,0,75,67,0,88,63,28,29.91,29.85,10,2,10,0.04
2013-7-28,89,82,78,72,69,61,78,65,45,29.97,29.85,11,1,11,0.00
2013-7-29,90,83,76,74,71,67,87,69,52,30.06,29.94,9,1,9,0.00
2013-7-30,89,82,77,77,73,65,83,73,56,30.09,30.00,10,1,10,0.00
2013-7-31,82,78,76,76,72,70,86,82,78,30.06,30.00,8,0,8,0.00
2013-8-1,87,81,77,76,72,69,85,75,56,29.94,29.88,10,1,10,0.28
2013-8-2,89,82,76,75,72,70,88,73,55,29.97,29.85,11,1,11,0.00
2013-8-3,90,84,78,76,73,69,85,70,54,30.00,29.91,11,2,11,0.00
2013-8-4,87,87,87,71,71,71,60,60,60,29.97,29.97,3,3,3,0.00
2013-8-5,91,87,82,76,74,71,78,65,54,29.97,29.85,10,3,12,0.00
2013-8-6,88,80,77,85,76,71,99,89,73,29.91,29.83,8,1,8,1.06
2013-8-7,90,80,0,78,74,-44,100,82,10,29.88,29.83,10,1,10,0.00
2013-8-8,89,78,0,77,65,-44,100,69,10,29.94,29.85,10,2,10,0.00
2013-8-9,87,79,74,80,75,67,100,88,54,29.97,29.88,10,2,10,0.94
2013-8-10,88,80,74,87,77,68,100,91,56,30.03,29.94,8,1,8,0.00
2013-8-11,90,84,78,80,74,65,100,75,48,30.06,29.97,10,1,10,0.00
2013-8-12,91,84,78,81,77,70,100,81,52,30.06,29.91,10,1,10,0.00
2013-8-13,83,81,79,80,75,70,96,83,71,29.97,29.94,5,0,5,0.00
2013-8-14,97,83,80,81,76,68,100,81,50,29.97,29.85,8,1,8,0.12
2013-8-15,98,83,77,80,73,66,100,75,43,29.94,29.85,14,1,14,0.00
2013-8-16,96,84,80,76,72,64,88,68,42,29.97,29.88,9,1,9,0.00
2013-8-17,96,81,0,81,72,-44,100,78,10,30.00,29.91,9,1,9,0.87
2013-8-18,97,81,76,79,73,59,98,80,38,30.00,29.94,9,1,9,0.87
2013-8-19,102,80,74,78,73,59,100,83,34,30.00,29.88,22,1,22,1.38
2013-8-20,81,76,74,81,76,74,100,100,94,30.00,29.91,9,1,9,0.39
2013-8-21,96,79,75,83,74,63,100,88,41,30.03,29.91,15,1,15,0.71
2013-8-22,90,78,74,79,74,66,100,89,54,30.00,29.91,12,1,12,1.42
2013-8-23,101,80,75,80,71,61,100,78,36,29.94,29.88,11,1,11,0.71
2013-8-24,94,79,75,78,72,57,99,80,39,30.03,29.91,10,2,10,0.04
2013-8-25,85,78,75,77,73,61,99,84,53,30.06,29.97,10,2,10,0.04
2013-8-26,102,80,75,77,72,61,98,77,32,30.06,29.91,12,2,12,0.12
2013-8-27,77,75,74,75,74,74,99,96,92,29.94,29.91,8,1,8,0.04
2013-8-28,106,82,74,73,63,58,91,55,28,29.97,29.88,8,2,10,0.00
2013-8-29,111,82,76,72,66,59,88,61,25,29.94,29.85,11,1,11,0.00
2013-8-30,86,81,78,77,70,65,89,71,52,29.88,29.80,6,1,8,0.12
2013-8-31,103,80,73,95,74,65,100,83,54,29.88,29.77,10,1,10,0.51
2013-9-1,112,82,77,77,70,59,98,71,24,29.88,29.80,8,1,8,0.00
2013-9-2,118,83,77,79,68,58,98,66,22,29.91,29.83,8,1,8,0.08
2013-9-3,118,83,76,75,67,59,92,62,22,29.91,29.83,10,1,10,0.00
2013-9-4,111,81,74,77,70,59,100,74,26,29.97,29.85,10,1,10,0.67
2013-9-5,90,79,73,88,78,73,100,97,68,29.97,29.88,9,1,9,0.28
2013-9-6,107,81,76,79,77,65,99,90,34,30.09,29.88,8,1,8,0.28
2013-9-7,84,79,77,69,66,62,77,64,50,29.94,29.83,10,0,10,0.00
2013-9-8,112,81,74,74,66,58,92,64,24,30.56,29.77,12,2,12,0.00
2013-9-9,112,82,75,72,65,54,85,59,24,30.77,29.85,9,2,9,0.00
2013-9-10,117,83,75,74,67,60,87,63,24,30.95,29.91,12,3,12,0.00
2013-9-11,117,83,75,75,67,61,88,62,24,31.01,29.91,13,3,13,0.00
2013-9-12,92,80,76,81,70,66,86,71,55,31.01,30.18,9,1,9,0.00
2013-9-13,106,82,75,75,71,66,89,71,36,31.01,29.94,9,1,9,0.00
2013-9-14,82,80,76,76,74,71,88,81,77,31.01,30.27,3,1,3,0.00
2013-9-15,82,81,76,75,73,67,80,79,67,31.01,30.36,6,2,6,0.00
2013-9-16,78,75,75,71,70,69,87,85,78,31.01,30.95,6,3,6,0.00
2013-9-17,115,81,73,76,70,64,95,72,27,31.01,30.36,11,3,11,0.00
2013-9-18,106,80,75,76,71,68,90,75,34,31.01,30.36,15,3,15,0.04
2013-9-19,103,80,74,76,71,67,93,78,38,31.01,30.33,10,2,10,0.39
2013-9-20,103,80,73,75,70,65,94,75,35,31.01,30.27,8,1,8,0.00
2013-9-21,99,80,73,71,67,62,86,66,39,31.01,30.56,6,1,7,0.00
2013-9-22,96,80,75,79,74,69,99,83,47,31.01,30.71,10,1,10,0.28
2013-9-23,81,77,75,79,75,73,100,94,82,31.01,30.80,6,0,6,1.50
2013-9-24,79,73,0,79,70,-44,100,93,10,31.01,30.80,10,0,10,0.24
2013-9-25,78,74,70,78,74,70,100,99,90,31.01,30.89,13,1,13,4.80
2013-9-26,96,81,75,79,75,68,99,84,50,31.01,30.83,13,2,13,0.24
2013-9-27,88,76,71,72,68,64,90,77,53,31.01,30.59,10,2,10,0.24
2013-9-28,96,77,71,73,69,66,93,79,44,31.01,30.86,10,3,10,0.24
2013-9-29,84,77,70,73,68,63,90,75,50,31.01,31.01,11,2,11,0.24
2013-9-30,86,78,72,73,68,63,90,74,48,31.01,30.89,8,2,8,0.24
2013-10-1,87,79,73,74,70,66,90,74,50,31.01,31.01,9,2,9,0.24
2013-10-2,83,76,72,69,68,65,86,77,55,31.01,31.01,9,3,9,0.24
2013-10-3,87,79,73,72,68,65,85,71,49,31.01,31.01,10,2,10,0.00
2013-10-4,87,80,75,73,71,67,85,75,53,31.01,30.95,9,1,9,0.00
2013-10-5,86,80,74,73,70,65,88,74,52,31.01,31.01,10,2,10,0.00
2013-10-6,87,79,73,75,70,66,88,73,52,31.01,31.01,10,1,10,0.00
2013-10-7,84,77,74,84,75,70,99,93,81,31.01,31.01,15,2,15,0.39
2013-10-8,84,79,75,77,73,69,94,84,69,31.01,31.01,12,2,12,0.08
2013-10-9,78,74,70,69,66,63,82,77,67,31.01,31.01,10,3,10,0.08
2013-10-10,83,74,67,68,64,61,87,73,53,31.01,31.01,10,2,10,0.08
2013-10-11,83,76,69,70,64,60,89,68,51,31.01,23.06,10,1,10,0.00
2013-10-12,83,74,68,69,62,57,86,67,43,17.72,17.72,12,1,12,0.00
2013-10-13,83,74,67,68,61,57,84,65,43,31.01,17.72,9,1,9,0.00
2013-10-14,83,75,69,67,63,62,85,68,51,17.72,17.72,10,2,11,0.00
2013-10-15,79,73,68,71,67,63,90,82,74,17.72,17.72,11,2,11,0.00
2013-10-16,82,75,71,70,67,63,90,77,55,17.72,17.72,9,1,9,0.00
2013-10-17,74,72,70,67,66,66,88,81,77,29.88,17.72,0,0,0,0.00